Weather History for Gainesville, FL

Change the Weather History Date:

Friday, October 5, 2012

  Actual Average Record
Temperature  
Mean Temperature 81 °F 74 °F  
Max Temperature 90 °F 84 °F 96 °F (1911)
Min Temperature 72 °F 64 °F 47 °F (1987)
Degree Days  
Heating Degree Days 0 0  
Month to date heating degree days 0 0  
Since 1 July heating degree days 0 0  
Cooling Degree Days 16 9  
Month to date cooling degree days 74 49  
Year to date cooling degree days 2771 2389  
Growing Degree Days 30 (Base 50)    
Moisture  
Dew Point 72 °F    
Average Humidity 80    
Maximum Humidity 100    
Minimum Humidity 59    
Precipitation  
Precipitation 0.06 in 0.13 in 1.85 in (2007)
Month to date precipitation 0.85 0.65  
Year to date precipitation 49.22 40.64  
Snow  
Snow 0.00 in 0.00 in 0.00 in ()
Month to date snowfall 0.0 0.0  
Since 1 July snowfall 0.0 0.0  
Since 1 September snowfall 0.0 0.0  
Snow Depth 0.00 in    
Sea Level Pressure  
Sea Level Pressure 30.08 in    
Wind  
Wind Speed 3 mph (NE)    
Max Wind Speed 10 mph    
Max Gust Speed 129 mph    
Visibility 7 miles    
Events Fog , Rain , Thunderstorm    
T = Trace of Precipitation, MM = Missing Value Source: NWS Daily Summary

Daily Weather History Graph

Daily Weather History Graph

Search for Another Location

Airport:

Trip Planner

Search our weather history database for the weather conditions in past years. The results will help you decide how hot, cold, wet, or windy it might be!

Date:

Astronomy

Oct. 05, 2012 Rise Set
Actual Time 7:24 AM EDT 7:09 PM EDT
Civil Twilight 7:01 AM EDT 7:33 PM EDT
Nautical Twilight 6:33 AM EDT 8:00 PM EDT
Astronomical Twilight 6:05 AM EDT 8:28 PM EDT
Moon 10:52 PM EDT (10/5) 12:11 PM EDT (10/5)
Length of Visible Light 12h 32m
Length of Day
11h 44m
Waning Gibbous, 74% of the Moon is Illuminated
Oct 5
Waning Gibbous
Oct 8
Last Quarter
Oct 15
New
Oct 21
First Quarter
Oct 29
Full

Hourly Weather History & Observations

Time (EDT) Temp. Heat Index Dew Point Humidity Pressure Visibility Wind Dir Wind Speed Gust Speed Precip Events Conditions
12:05 AM 73.4 °F - 71.6 °F 94% 30.17 in 10.0 mi East 4.6 mph - N/A   Mostly Cloudy
12:53 AM 72.0 °F - 71.1 °F 97% 30.15 in 10.0 mi Calm Calm - N/A   Overcast
1:53 AM 73.0 °F - 71.1 °F 93% 30.12 in 7.0 mi Calm Calm - N/A   Overcast
2:53 AM 73.0 °F - 71.1 °F 93% 30.13 in 10.0 mi NNE 4.6 mph - N/A   Overcast
4:27 AM 71.6 °F - 71.6 °F 100% 30.11 in 6.0 mi Calm Calm - N/A   Scattered Clouds
4:53 AM 73.0 °F - 71.1 °F 93% 30.10 in 8.0 mi Calm Calm - N/A   Partly Cloudy
5:18 AM 71.6 °F - 69.8 °F 94% 30.11 in 7.0 mi Calm Calm - N/A   Partly Cloudy
5:53 AM 72.0 °F - 71.1 °F 97% 30.10 in 6.0 mi Calm Calm - N/A   Clear
6:27 AM 73.4 °F - 71.6 °F 94% 30.11 in 8.0 mi NNE 3.5 mph - N/A   Scattered Clouds
6:36 AM 73.4 °F - 71.6 °F 94% 30.11 in 5.0 mi NNE 3.5 mph - N/A   Mostly Cloudy
6:47 AM 73.4 °F - 71.6 °F 94% 30.11 in 1.8 mi NE 4.6 mph - N/A   Overcast
6:53 AM 73.0 °F - 72.0 °F 96% 30.11 in 1.2 mi NNE 3.5 mph - N/A   Overcast
7:08 AM 73.4 °F - 71.6 °F 94% 30.11 in 1.0 mi Calm Calm - N/A   Overcast
7:14 AM 73.4 °F - 71.6 °F 94% 30.11 in 0.8 mi Calm Calm - N/A   Mist
7:42 AM 73.4 °F - 71.6 °F 94% 30.11 in 0.2 mi Calm Calm - N/A Fog Fog
7:53 AM 73.0 °F - 72.0 °F 96% 30.10 in 0.2 mi Calm Calm - N/A Fog Fog
8:03 AM 73.4 °F - 71.6 °F 94% 30.11 in 0.5 mi Calm Calm - N/A Fog Fog
8:45 AM 73.4 °F - 73.4 °F 100% 30.11 in 1.5 mi Calm Calm - N/A   Overcast
8:51 AM 75.2 °F - 73.4 °F 94% 30.11 in 3.0 mi Calm Calm - N/A   Overcast
8:53 AM 73.9 °F - 73.0 °F 97% 30.11 in 2.0 mi NNE 3.5 mph - N/A   Overcast
9:41 AM 75.2 °F - 73.4 °F 94% 30.12 in 10.0 mi North 3.5 mph - N/A   Overcast
9:53 AM 77.0 °F - 73.9 °F 90% 30.11 in 10.0 mi NE 3.5 mph - N/A   Overcast
10:12 AM 80.6 °F 85.4 °F 73.4 °F 79% 30.12 in 10.0 mi NNE 3.5 mph - N/A   Overcast
10:53 AM 81.0 °F 86.2 °F 73.9 °F 79% 30.11 in 10.0 mi East 3.5 mph - N/A   Scattered Clouds
11:41 AM 84.2 °F 90.9 °F 73.4 °F 70% 30.11 in 10.0 mi East 3.5 mph - N/A   Mostly Cloudy
11:53 AM 84.9 °F 92.1 °F 73.9 °F 69% 30.10 in 10.0 mi NE 4.6 mph - N/A   Overcast
12:07 PM 82.4 °F 88.2 °F 73.4 °F 74% 30.11 in 10.0 mi Variable 3.5 mph - N/A   Mostly Cloudy
1:42 PM 89.6 °F 98.2 °F 73.4 °F 59% 30.06 in 10.0 mi Variable 3.5 mph - N/A   Mostly Cloudy
1:53 PM 86.0 °F 92.2 °F 72.0 °F 63% 30.04 in 10.0 mi Calm Calm - N/A   Mostly Cloudy
2:53 PM 88.0 °F 93.8 °F 71.1 °F 57% 30.01 in 10.0 mi Calm Calm - N/A   Scattered Clouds
3:53 PM 80.1 °F 83.6 °F 71.1 °F 74% 30.01 in 10.0 mi ENE 10.4 mph - N/A   Overcast
4:53 PM 77.0 °F - 72.0 °F 84% 29.99 in 10.0 mi East 9.2 mph - 0.00 in Rain Light Rain
5:23 PM 75.2 °F - 71.6 °F 89% 30.01 in 10.0 mi ESE 9.2 mph - 0.00 in   Overcast
5:38 PM 75.2 °F - 71.6 °F 89% 30.01 in 10.0 mi East 5.8 mph - 0.00 in Thunderstorm Thunderstorm
5:53 PM 75.9 °F - 71.1 °F 85% 30.01 in 10.0 mi ESE 4.6 mph - 0.00 in Thunderstorm Thunderstorm
6:28 PM 75.2 °F - 71.6 °F 89% 30.03 in 10.0 mi South 4.6 mph - 0.00 in Rain , Thunderstorm Light Thunderstorms and Rain
6:53 PM 75.0 °F - 72.0 °F 90% 30.05 in 7.0 mi WNW 3.5 mph - 0.00 in Rain Light Rain
7:06 PM 73.4 °F - 71.6 °F 94% 30.04 in 8.0 mi Calm Calm - 0.01 in Rain Light Rain
7:53 PM 73.9 °F - 72.0 °F 93% 30.03 in 6.0 mi North 4.6 mph - 0.03 in Rain Rain
8:53 PM 73.9 °F - 72.0 °F 93% 30.02 in 10.0 mi WNW 10.4 mph 76.0 mph 0.03 in   Clear
9:18 PM 73.4 °F - 71.6 °F 94% 30.03 in 10.0 mi North 4.6 mph 128.9 mph N/A   Squalls
9:53 PM 73.9 °F - 72.0 °F 93% 30.03 in 10.0 mi ENE 3.5 mph - N/A   Clear
10:53 PM 73.9 °F - 72.0 °F 93% 30.04 in 10.0 mi Calm Calm - N/A   Clear
11:53 PM 75.0 °F - 72.0 °F 90% 30.02 in 10.0 mi Calm Calm - N/A   Clear